Location: Ammerl�gen
(47.2167°N, 9.6000°E)
Time: 12:58:38
(UTC+00:00)

RS-15 - Pass Details

Date: 07 December 2021
Orbit: 1882 x 2162 km, 64.8° (Epoch: 22 January)

Event Time Altitude Azimuth Distance (km) Brightness Sun altitude
Exits shadow 05:15:03 20° 285° (WNW) 3,777 8.9 -16.1°
Maximum altitude 05:22:39 39° 341° (NNW) 2,904 8.6 -14.8°
Drops below altitude 10° 05:33:55 10° 47° (NE) 4,679 10.4 -13.0°
Sets 05:37:55 0° 56° (NE) 5,694 11.0 -12.4°
